| time (UTC) | temp F | wind direction | speed MPH | gust MPH | rain 1hr in | rain 24hr in | rain mn in | humidity % | barometer mb |
| 20260505052527 | 70 | 172 | 9.0 | 13.0 | 0.00 | 0.00 | 0.00 | 76 | 1009.3 |
| 20260505052025 | 70 | 159 | 4.0 | 9.0 | 0.00 | 0.00 | 0.00 | 76 | 1009.4 |
| 20260505051522 | 71 | 154 | 5.0 | 13.0 | 0.00 | 0.00 | 0.00 | 75 | 1009.5 |
| 20260505051020 | 71 | 191 | 6.0 | 8.0 | 0.00 | 0.00 | 0.00 | 75 | 1009.4 |
| 20260505050518 | 71 | 166 | 6.0 | 11.0 | 0.00 | 0.00 | 0.00 | 75 | 1009.2 |
| 20260505041445 | 71 | 156 | 7.0 | 7.0 | 0.00 | 0.00 | 0.00 | 72 | 1009.4 |
| 20260505040943 | 71 | 178 | 4.0 | 13.0 | 0.00 | 0.00 | 0.00 | 71 | 1009.5 |
| 20260505040440 | 71 | 177 | 7.0 | 12.0 | 0.00 | 0.00 | 0.00 | 71 | 1009.5 |
| 20260505035937 | 71 | 162 | 10.0 | 12.0 | 0.00 | 0.00 | 0.00 | 70 | 1009.6 |
| 20260505035433 | 71 | 158 | 8.0 | 9.0 | 0.00 | 0.00 | 0.00 | 70 | 1009.5 |
| 20260505034930 | 72 | 157 | 11.0 | 12.0 | 0.00 | 0.00 | 0.00 | 69 | 1009.6 |
| 20260505034426 | 71 | 158 | 6.0 | 10.0 | 0.00 | 0.00 | 0.00 | 69 | 1009.6 |
| 20260505033924 | 71 | 172 | 3.0 | 10.0 | 0.00 | 0.00 | 0.00 | 69 | 1009.5 |
| 20260505033420 | 72 | 135 | 9.0 | 13.0 | 0.00 | 0.00 | 0.00 | 68 | 1009.4 |
| 20260505032919 | 71 | 151 | 8.0 | 13.0 | 0.00 | 0.00 | 0.00 | 67 | 1009.4 |
| 20260505032415 | 71 | 153 | 4.0 | 11.0 | 0.00 | 0.00 | 0.00 | 67 | 1009.4 |
| 20260505031912 | 71 | 144 | 8.0 | 9.0 | 0.00 | 0.00 | 0.00 | 67 | 1009.6 |
| 20260505031409 | 71 | 182 | 5.0 | 9.0 | 0.00 | 0.00 | 0.00 | 66 | 1009.5 |
| 20260505030906 | 71 | 145 | 6.0 | 6.0 | 0.00 | 0.00 | 0.00 | 66 | 1009.4 |
| 20260505030401 | 71 | 160 | 4.0 | 6.0 | 0.00 | 0.00 | 0.00 | 67 | 1009.6 |
| 20260505025857 | 71 | 155 | 4.0 | 8.0 | 0.00 | 0.00 | 0.00 | 66 | 1009.6 |
| 20260505025355 | 71 | 161 | 6.0 | 6.0 | 0.00 | 0.00 | 0.00 | 66 | 1009.5 |
| 20260505024854 | 71 | 176 | 4.0 | 7.0 | 0.00 | 0.00 | 0.00 | 65 | 1009.4 |
| 20260505024351 | 71 | 160 | 7.0 | 7.0 | 0.00 | 0.00 | 0.00 | 65 | 1009.4 |
| 20260505023848 | 71 | 165 | 3.0 | 6.0 | 0.00 | 0.00 | 0.00 | 65 | 1009.4 |
| 20260505023345 | 71 | 163 | 3.0 | 6.0 | 0.00 | 0.00 | 0.00 | 65 | 1009.3 |
| 20260505022842 | 71 | 165 | 3.0 | 5.0 | 0.00 | 0.00 | 0.00 | 65 | 1009.4 |
| 20260505022339 | 71 | 184 | 2.0 | 8.0 | 0.00 | 0.00 | 0.00 | 65 | 1009.5 |
| 20260505021836 | 71 | 181 | 3.0 | 4.0 | 0.00 | 0.00 | 0.00 | 64 | 1009.3 |
| 20260505021332 | 71 | 168 | 3.0 | 4.0 | 0.00 | 0.00 | 0.00 | 64 | 1009.3 |
| 20260505020828 | 72 | 167 | 5.0 | 5.0 | 0.00 | 0.00 | 0.00 | 63 | 1009.1 |
| 20260505020324 | 72 | 175 | 5.0 | 5.0 | 0.00 | 0.00 | 0.00 | 63 | 1009.2 |
| 20260505015821 | 72 | 164 | 3.0 | 5.0 | 0.00 | 0.00 | 0.00 | 62 | 1009.0 |
| 20260505015318 | 72 | 150 | 3.0 | 6.0 | 0.00 | 0.00 | 0.00 | 62 | 1009.0 |
| 20260505014816 | 72 | 164 | 2.0 | 3.0 | 0.00 | 0.00 | 0.00 | 63 | 1009.0 |
| 20260505014312 | 72 | 165 | 3.0 | 4.0 | 0.00 | 0.00 | 0.00 | 62 | 1009.2 |
| 20260505013809 | 72 | 158 | 2.0 | 4.0 | 0.00 | 0.00 | 0.00 | 62 | 1009.1 |
| 20260505013306 | 72 | 161 | 6.0 | 6.0 | 0.00 | 0.00 | 0.00 | 61 | 1009.0 |
| 20260505012805 | 72 | 172 | 3.0 | 5.0 | 0.00 | 0.00 | 0.00 | 61 | 1009.2 |
| 20260505012304 | 73 | 167 | 3.0 | 4.0 | 0.00 | 0.00 | 0.00 | 60 | 1009.0 |
| 20260505011757 | 73 | 179 | 4.0 | 5.0 | 0.00 | 0.00 | 0.00 | 59 | 1009.0 |
| 20260505011255 | 73 | 151 | 2.0 | 4.0 | 0.00 | 0.00 | 0.00 | 59 | 1008.9 |
| 20260505010750 | 74 | 169 | 2.0 | 6.0 | 0.00 | 0.00 | 0.00 | 58 | 1008.7 |
| 20260505010247 | 74 | 169 | 3.0 | 6.0 | 0.00 | 0.00 | 0.00 | 58 | 1008.9 |
| 20260505005743 | 74 | 180 | 4.0 | 4.0 | 0.00 | 0.00 | 0.00 | 58 | 1008.8 |
| 20260505005240 | 74 | 160 | 3.0 | 6.0 | 0.00 | 0.00 | 0.00 | 57 | 1008.8 |
| 20260505004737 | 75 | 169 | 3.0 | 5.0 | 0.00 | 0.00 | 0.00 | 56 | 1008.6 |
| 20260505004233 | 75 | 183 | 2.0 | 5.0 | 0.00 | 0.00 | 0.00 | 55 | 1008.9 |
| 20260505003731 | 75 | 175 | 2.0 | 5.0 | 0.00 | 0.00 | 0.00 | 56 | 1008.9 |
| 20260505003229 | 75 | 169 | 3.0 | 5.0 | 0.00 | 0.00 | 0.00 | 55 | 1009.0 |
| 20260505002725 | 75 | 164 | 6.0 | 8.0 | 0.00 | 0.00 | 0.00 | 54 | 1009.2 |
| 20260505002222 | 76 | 165 | 6.0 | 6.0 | 0.00 | 0.00 | 0.00 | 54 | 1009.2 |
| 20260505001720 | 76 | 161 | 3.0 | 9.0 | 0.00 | 0.00 | 0.00 | 53 | 1009.2 |
| 20260505001217 | 76 | 138 | 6.0 | 11.0 | 0.00 | 0.00 | 0.00 | 51 | 1009.1 |
| 20260505000714 | 77 | 182 | 4.0 | 9.0 | 0.00 | 0.00 | 0.00 | 52 | 1009.4 |
| 20260505000212 | 77 | 158 | 3.0 | 8.0 | 0.00 | 0.00 | 0.00 | 52 | 1009.5 |
| 20260504235708 | 77 | 144 | 7.0 | 11.0 | 0.00 | 0.00 | 0.00 | 51 | 1009.4 |
| 20260504235204 | 77 | 170 | 9.0 | 13.0 | 0.00 | 0.00 | 0.00 | 49 | 1009.4 |
| 20260504234702 | 78 | 171 | 4.0 | 9.0 | 0.00 | 0.00 | 0.00 | 49 | 1009.4 |
| 20260504234159 | 79 | 154 | 9.0 | 14.0 | 0.00 | 0.00 | 0.00 | 48 | 1009.6 |
| 20260504233654 | 79 | 175 | 7.0 | 11.0 | 0.00 | 0.00 | 0.00 | 48 | 1009.5 |
| 20260504233150 | 79 | 163 | 6.0 | 11.0 | 0.00 | 0.00 | 0.00 | 48 | 1009.5 |
| 20260504232648 | 79 | 166 | 7.0 | 9.0 | 0.00 | 0.00 | 0.00 | 48 | 1009.7 |
| 20260504232145 | 79 | 167 | 10.0 | 15.0 | 0.00 | 0.00 | 0.00 | 47 | 1009.8 |
| 20260504231642 | 79 | 152 | 12.0 | 15.0 | 0.00 | 0.00 | 0.00 | 47 | 1009.8 |
| 20260504231138 | 79 | 184 | 5.0 | 10.0 | 0.00 | 0.00 | 0.00 | 48 | 1009.7 |
| 20260504230634 | 79 | 173 | 8.0 | 12.0 | 0.00 | 0.00 | 0.00 | 47 | 1010.0 |
| 20260504230133 | 80 | 186 | 9.0 | 13.0 | 0.00 | 0.00 | 0.00 | 46 | 1010.0 |
| 20260504225631 | 80 | 162 | 11.0 | 13.0 | 0.00 | 0.00 | 0.00 | 46 | 1010.1 |
| 20260504225127 | 80 | 182 | 9.0 | 16.0 | 0.00 | 0.00 | 0.00 | 46 | 1010.3 |
| 20260504224624 | 80 | 151 | 7.0 | 13.0 | 0.00 | 0.00 | 0.00 | 46 | 1010.3 |
| 20260504224121 | 80 | 140 | 7.0 | 12.0 | 0.00 | 0.00 | 0.00 | 45 | 1010.2 |
| 20260504223618 | 80 | 167 | 10.0 | 12.0 | 0.00 | 0.00 | 0.00 | 46 | 1010.3 |
| 20260504223114 | 80 | 155 | 8.0 | 15.0 | 0.00 | 0.00 | 0.00 | 46 | 1010.7 |
| 20260504222611 | 80 | 139 | 18.0 | 18.0 | 0.00 | 0.00 | 0.00 | 45 | 1010.4 |
| 20260504222108 | 80 | 160 | 9.0 | 13.0 | 0.00 | 0.00 | 0.00 | 45 | 1010.4 |
| 20260504221605 | 80 | 152 | 13.0 | 15.0 | 0.00 | 0.00 | 0.00 | 46 | 1010.4 |
| 20260504221102 | 80 | 162 | 11.0 | 19.0 | 0.00 | 0.00 | 0.00 | 47 | 1010.4 |
| 20260504220558 | 80 | 162 | 5.0 | 8.0 | 0.00 | 0.00 | 0.00 | 48 | 1010.6 |
| 20260504220055 | 80 | 201 | 8.0 | 13.0 | 0.00 | 0.00 | 0.00 | 47 | 1010.6 |
| 20260504215552 | 81 | 164 | 7.0 | 13.0 | 0.00 | 0.00 | 0.00 | 47 | 1010.8 |
| 20260504215049 | 80 | 152 | 9.0 | 10.0 | 0.00 | 0.00 | 0.00 | 47 | 1010.8 |
| 20260504214545 | 81 | 167 | 8.0 | 13.0 | 0.00 | 0.00 | 0.00 | 46 | 1010.8 |
| 20260504214042 | 80 | 199 | 4.0 | 6.0 | 0.00 | 0.00 | 0.00 | 49 | 1010.8 |
| 20260504213538 | 80 | 166 | 7.0 | 17.0 | 0.00 | 0.00 | 0.00 | 49 | 1010.8 |
| 20260504213035 | 80 | 190 | 9.0 | 14.0 | 0.00 | 0.00 | 0.00 | 47 | 1011.0 |
| 20260504212531 | 80 | 163 | 11.0 | 13.0 | 0.00 | 0.00 | 0.00 | 48 | 1011.1 |
| 20260504212029 | 79 | 180 | 9.0 | 13.0 | 0.00 | 0.00 | 0.00 | 47 | 1011.1 |
| 20260504211525 | 79 | 172 | 7.0 | 13.0 | 0.00 | 0.00 | 0.00 | 48 | 1011.3 |
| 20260504211023 | 79 | 182 | 9.0 | 13.0 | 0.00 | 0.00 | 0.00 | 48 | 1011.5 |
| 20260504210519 | 80 | 196 | 7.0 | 12.0 | 0.00 | 0.00 | 0.00 | 47 | 1011.6 |
| 20260504210016 | 79 | 193 | 6.0 | 14.0 | 0.00 | 0.00 | 0.00 | 47 | 1011.6 |
| 20260504205514 | 80 | 163 | 15.0 | 19.0 | 0.00 | 0.00 | 0.00 | 46 | 1011.9 |
| 20260504205012 | 80 | 158 | 6.0 | 12.0 | 0.00 | 0.00 | 0.00 | 48 | 1011.8 |
| 20260504204510 | 79 | 155 | 10.0 | 14.0 | 0.00 | 0.00 | 0.00 | 48 | 1012.0 |
| 20260504204008 | 79 | 134 | 13.0 | 19.0 | 0.00 | 0.00 | 0.00 | 48 | 1011.9 |
| 20260504203506 | 79 | 153 | 9.0 | 14.0 | 0.00 | 0.00 | 0.00 | 47 | 1012.0 |
| 20260504203002 | 79 | 142 | 11.0 | 14.0 | 0.00 | 0.00 | 0.00 | 47 | 1012.2 |
| 20260504202458 | 79 | 180 | 7.0 | 12.0 | 0.00 | 0.00 | 0.00 | 46 | 1012.4 |
| 20260504201955 | 79 | 207 | 6.0 | 14.0 | 0.00 | 0.00 | 0.00 | 50 | 1012.5 |
| 20260504201453 | 79 | 157 | 10.0 | 13.0 | 0.00 | 0.00 | 0.00 | 48 | 1012.5 |
| 20260504200950 | 79 | 186 | 7.0 | 16.0 | 0.00 | 0.00 | 0.00 | 47 | 1012.6 |
| 20260504200447 | 79 | 171 | 9.0 | 11.0 | 0.00 | 0.00 | 0.00 | 51 | 1012.8 |
| 20260504195943 | 79 | 135 | 13.0 | 13.0 | 0.00 | 0.00 | 0.00 | 47 | 1012.9 |
| 20260504195439 | 78 | 151 | 5.0 | 14.0 | 0.00 | 0.00 | 0.00 | 48 | 1013.0 |
| 20260504194936 | 79 | 153 | 10.0 | 14.0 | 0.00 | 0.00 | 0.00 | 49 | 1013.2 |
| 20260504194432 | 78 | 137 | 7.0 | 11.0 | 0.00 | 0.00 | 0.00 | 47 | 1013.1 |
| 20260504193928 | 78 | 167 | 5.0 | 12.0 | 0.00 | 0.00 | 0.00 | 48 | 1013.4 |
| 20260504193425 | 78 | 160 | 9.0 | 15.0 | 0.00 | 0.00 | 0.00 | 47 | 1013.3 |
| 20260504192924 | 78 | 204 | 8.0 | 13.0 | 0.00 | 0.00 | 0.00 | 46 | 1013.4 |
| 20260504192421 | 78 | 215 | 7.0 | 13.0 | 0.00 | 0.00 | 0.00 | 49 | 1013.5 |
| 20260504191920 | 78 | 161 | 11.0 | 14.0 | 0.00 | 0.00 | 0.00 | 47 | 1013.6 |
| 20260504191418 | 77 | 186 | 6.0 | 16.0 | 0.00 | 0.00 | 0.00 | 48 | 1013.6 |
| 20260504190912 | 77 | 181 | 5.0 | 15.0 | 0.00 | 0.00 | 0.00 | 49 | 1013.6 |
| 20260504190408 | 78 | 180 | 9.0 | 17.0 | 0.00 | 0.00 | 0.00 | 47 | 1013.7 |
| 20260504185905 | 78 | 156 | 6.0 | 15.0 | 0.00 | 0.00 | 0.00 | 49 | 1013.6 |
| 20260504185403 | 77 | 151 | 8.0 | 13.0 | 0.00 | 0.00 | 0.00 | 48 | 1013.9 |
| 20260504184858 | 77 | 146 | 11.0 | 22.0 | 0.00 | 0.00 | 0.00 | 48 | 1014.0 |
| 20260504184354 | 76 | 144 | 6.0 | 14.0 | 0.00 | 0.00 | 0.00 | 49 | 1014.2 |
| 20260504183850 | 77 | 151 | 7.0 | 12.0 | 0.00 | 0.00 | 0.00 | 48 | 1014.1 |
| 20260504183348 | 77 | 188 | 4.0 | 12.0 | 0.00 | 0.00 | 0.00 | 48 | 1014.2 |
| 20260504182845 | 76 | 157 | 10.0 | 17.0 | 0.00 | 0.00 | 0.00 | 50 | 1014.2 |
| 20260504182343 | 76 | 156 | 9.0 | 15.0 | 0.00 | 0.00 | 0.00 | 47 | 1014.3 |
| 20260504181839 | 76 | 186 | 7.0 | 19.0 | 0.00 | 0.00 | 0.00 | 48 | 1014.5 |
| 20260504181337 | 77 | 148 | 13.0 | 15.0 | 0.00 | 0.00 | 0.00 | 48 | 1014.6 |
| 20260504180836 | 76 | 184 | 11.0 | 11.0 | 0.00 | 0.00 | 0.00 | 48 | 1014.6 |
| 20260504180334 | 76 | 163 | 6.0 | 16.0 | 0.00 | 0.00 | 0.00 | 49 | 1014.6 |
| 20260504175832 | 76 | 183 | 9.0 | 13.0 | 0.00 | 0.00 | 0.00 | 49 | 1014.7 |
| 20260504175328 | 75 | 173 | 8.0 | 15.0 | 0.00 | 0.00 | 0.00 | 49 | 1014.9 |
| 20260504174826 | 75 | 146 | 8.0 | 21.0 | 0.00 | 0.00 | 0.00 | 51 | 1014.9 |
| 20260504174324 | 75 | 171 | 6.0 | 16.0 | 0.00 | 0.00 | 0.00 | 52 | 1014.9 |
| 20260504173820 | 75 | 150 | 9.0 | 19.0 | 0.00 | 0.00 | 0.00 | 50 | 1015.1 |
| 20260504173317 | 75 | 166 | 8.0 | 15.0 | 0.00 | 0.00 | 0.00 | 50 | 1015.2 |
| 20260504172814 | 75 | 171 | 10.0 | 16.0 | 0.00 | 0.00 | 0.00 | 51 | 1015.2 |
| 20260504172311 | 75 | 163 | 10.0 | 15.0 | 0.00 | 0.00 | 0.00 | 48 | 1015.4 |
| 20260504171807 | 75 | 168 | 4.0 | 13.0 | 0.00 | 0.00 | 0.00 | 52 | 1015.4 |
| 20260504171304 | 75 | 128 | 11.0 | 19.0 | 0.00 | 0.00 | 0.00 | 50 | 1015.4 |
| 20260504170801 | 75 | 189 | 8.0 | 14.0 | 0.00 | 0.00 | 0.00 | 50 | 1015.4 |
| 20260504170258 | 75 | 156 | 6.0 | 19.0 | 0.00 | 0.00 | 0.00 | 49 | 1015.5 |
| 20260504160216 | 73 | 175 | 5.0 | 13.0 | 0.00 | 0.00 | 0.00 | 56 | 1016.0 |
| 20260504151144 | 70 | 198 | 9.0 | 19.0 | 0.00 | 0.00 | 0.00 | 60 | 1016.4 |
| 20260504150641 | 69 | 155 | 11.0 | 17.0 | 0.00 | 0.00 | 0.00 | 59 | 1016.4 |
| 20260504150138 | 69 | 161 | 8.0 | 15.0 | 0.00 | 0.00 | 0.00 | 62 | 1016.2 |
| 20260504141107 | 66 | 188 | 8.0 | 10.0 | 0.00 | 0.00 | 0.00 | 66 | 1016.8 |
| 20260504140604 | 66 | 185 | 4.0 | 8.0 | 0.00 | 0.00 | 0.00 | 69 | 1016.5 |
| 20260504130528 | 61 | 169 | 3.0 | 7.0 | 0.00 | 0.00 | 0.00 | 79 | 1016.3 |
| 20260504110415 | 55 | 138 | 2.0 | 3.0 | 0.00 | 0.00 | 0.00 | 87 | 1016.1 |
| 20260504100332 | 57 | 160 | 3.0 | 4.0 | 0.00 | 0.00 | 0.00 | 82 | 1016.3 |
| 20260504081726 | 55 | 131 | 2.0 | 2.0 | 0.00 | 0.00 | 0.00 | 90 | 1016.3 |
| 20260504081222 | 55 | 121 | 2.0 | 2.0 | 0.00 | 0.00 | 0.00 | 91 | 1016.1 |
| 20260504080718 | 54 | 125 | 2.0 | 4.0 | 0.00 | 0.00 | 0.00 | 94 | 1016.3 |
| 20260504080215 | 53 | 147 | 1.0 | 2.0 | 0.00 | 0.00 | 0.00 | 93 | 1016.2 |
| 20260504070142 | 54 | 136 | 2.0 | 2.0 | 0.00 | 0.00 | 0.00 | 93 | 1017.1 |